Change the Weather History Date:

Wednesday, January 8, 2014

  Actual Average (PAHO) Record (PAHO)
Temperature  
Mean Temperature 32 °F -  
Max Temperature 34 °F 28 °F 50 °F (2015)
Min Temperature 30 °F 16 °F -10 °F (1975)
Degree Days  
Heating Degree Days 33    
Moisture  
Dew Point 33 °F    
Average Humidity 100    
Maximum Humidity 100    
Minimum Humidity 92    
Precipitation  
Precipitation 0.13 in - - ()
Sea Level Pressure  
Sea Level Pressure 29.26 in    
Wind  
Wind Speed 0 mph (SSE)    
Max Wind Speed 4 mph    
Max Gust Speed -    
Visibility 8 miles    
Events Rain , Snow    
Averages and records for this station are not official NWS values.
T = Trace of Precipitation, MM = Missing Value Source: NWS Daily Summary

Daily Weather History Graph

Daily Weather History Graph

Search for Another Location

Airport or City:

Trip Planner

Search our weather history database for the weather conditions in past years. The results will help you decide how hot, cold, wet, or windy it might be!

Date:

Astronomy

Jan. 08, 2014 Rise Set
Actual Time 9:58 AM AKST 4:29 PM AKST
Civil Twilight 9:05 AM AKST 5:22 PM AKST
Nautical Twilight 8:11 AM AKST 6:16 PM AKST
Astronomical Twilight 7:21 AM AKST 7:06 PM AKST
Moon 12:16 PM AKST (1/8) 2:20 AM AKST (1/8)
Length of Visible Light 8h 17m
Length of Day
6h 30m
First Quarter, 57% of the Moon is Illuminated
Jan 8
First Quarter
Jan 15
Full
Jan 23
Last Quarter
Jan 30
New
Feb 6
First Quarter

Hourly Weather History & Observations

Time (AKST) Temp. Windchill Dew Point Humidity Pressure Visibility Wind Dir Wind Speed Gust Speed Precip Events Conditions
12:53 AM 34.0 °F - 34.0 °F 100% 29.30 in 10.0 mi Calm Calm - N/A   Overcast
1:53 AM 34.0 °F - 34.0 °F 100% 29.28 in 9.0 mi Calm Calm - 0.01 in Rain Light Rain
2:25 AM 33.8 °F 30.8 °F 33.8 °F 100% 29.28 in 8.0 mi South 3.5 mph - 0.01 in Rain Light Rain
3:53 AM 33.1 °F 30.0 °F 33.1 °F 100% 29.28 in 9.0 mi South 3.5 mph - 0.03 in Rain Light Rain
4:14 AM 33.8 °F - 33.8 °F 100% 29.27 in 10.0 mi Calm Calm - 0.00 in Rain Light Rain
4:53 AM 33.1 °F - 33.1 °F 100% 29.27 in 7.0 mi Calm Calm - 0.01 in Rain Light Rain
5:04 AM 33.8 °F 30.8 °F 33.8 °F 100% 29.26 in 5.0 mi SE 3.5 mph - 0.00 in Rain Light Rain
5:15 AM 33.8 °F - 33.8 °F 100% 29.26 in 10.0 mi Calm Calm - 0.01 in   Overcast
5:53 AM 33.1 °F - 33.1 °F 100% 29.26 in 10.0 mi Calm Calm - 0.01 in Rain Light Rain
6:53 AM 33.1 °F - 33.1 °F 100% 29.25 in 10.0 mi Calm Calm - 0.00 in Rain Light Rain
7:13 AM 33.8 °F - 33.8 °F 100% 29.25 in 10.0 mi Calm Calm - 0.00 in Rain Light Rain
7:53 AM 33.1 °F - 33.1 °F 100% 29.26 in 5.0 mi Calm Calm - 0.01 in Rain Light Rain
8:24 AM 33.8 °F - 33.8 °F 100% 29.25 in 10.0 mi Calm Calm - 0.01 in   Overcast
8:50 AM 33.8 °F - 33.8 °F 100% 29.25 in 9.0 mi Calm Calm - 0.01 in Rain Light Rain
8:53 AM 33.1 °F - 33.1 °F 100% 29.26 in 8.0 mi Calm Calm - 0.01 in Rain Light Rain
9:53 AM 33.1 °F - 33.1 °F 100% 29.26 in 10.0 mi Calm Calm - 0.00 in   Overcast
10:39 AM 33.8 °F - 33.8 °F 100% 29.27 in 9.0 mi Calm Calm - 0.01 in Rain Light Rain
10:53 AM 33.1 °F - 33.1 °F 100% 29.27 in 10.0 mi Calm Calm - 0.01 in   Overcast
11:53 AM 34.0 °F - 34.0 °F 100% 29.28 in 10.0 mi Calm Calm - 0.00 in Rain Light Rain
12:19 PM 33.8 °F - 33.8 °F 100% 29.27 in 9.0 mi Calm Calm - 0.00 in Rain Light Rain
12:41 PM 33.8 °F - 33.8 °F 100% 29.27 in 10.0 mi Calm Calm - 0.00 in Rain Light Rain
12:48 PM 33.8 °F - 33.8 °F 100% 29.27 in 10.0 mi Calm Calm - 0.01 in Rain Light Rain
12:53 PM 34.0 °F - 34.0 °F 100% 29.28 in 10.0 mi Calm Calm - 0.01 in Rain Light Rain
1:30 PM 33.8 °F - 33.8 °F 100% 29.28 in 2.0 mi Calm Calm - 0.02 in Snow Light Snow
1:39 PM 33.8 °F - 33.8 °F 100% 29.28 in 7.0 mi Calm Calm - 0.02 in Snow Light Snow
1:53 PM 34.0 °F - 33.1 °F 96% 29.28 in 8.0 mi Calm Calm - 0.02 in   Overcast
2:12 PM 33.8 °F - 33.8 °F 100% 29.27 in 1.8 mi Calm Calm - 0.01 in Rain Light Rain
2:20 PM 33.8 °F - 33.8 °F 100% 29.27 in 3.0 mi Calm Calm - 0.01 in Rain Light Rain
2:37 PM 33.8 °F - 33.8 °F 100% 29.27 in 10.0 mi Calm Calm - 0.01 in   Overcast
2:53 PM 34.0 °F - 33.1 °F 96% 29.28 in 10.0 mi Calm Calm - 0.01 in   Overcast
3:53 PM 34.0 °F - 32.0 °F 92% 29.27 in 10.0 mi Calm Calm - N/A   Overcast
4:53 PM 33.1 °F - 33.1 °F 100% 29.27 in 10.0 mi Calm Calm - N/A   Overcast
5:53 PM 32.0 °F - 32.0 °F 100% 29.26 in 6.0 mi Calm Calm - 0.00 in   Overcast
6:25 PM 32.0 °F - 32.0 °F 100% 29.25 in 8.0 mi Calm Calm - N/A   Overcast
6:53 PM 32.0 °F - 30.9 °F 96% 29.25 in 6.0 mi Calm Calm - N/A   Mostly Cloudy
7:53 PM 32.0 °F - 32.0 °F 100% 29.24 in 7.0 mi Calm Calm - N/A   Overcast
8:45 PM 30.2 °F - 30.2 °F 100% 29.24 in 8.0 mi Calm Calm - 0.00 in   Overcast
8:53 PM 30.9 °F - 30.9 °F 100% 29.24 in 8.0 mi Calm Calm - 0.00 in   Overcast
9:53 PM 32.0 °F - 32.0 °F 100% 29.24 in 8.0 mi Calm Calm - 0.00 in Snow Light Snow
10:53 PM 32.0 °F - 32.0 °F 100% 29.24 in 10.0 mi Calm Calm - 0.00 in   Overcast
11:53 PM 32.0 °F - 32.0 °F 100% 29.24 in 10.0 mi Calm Calm - N/A   Overcast